Quick links : Home Page : Contact Us : Index : Site Map : Search Site : Ephemerides


(162273) 1999 VL12

Orbital Elements

The following orbital elements are taken from MPO123015
(162273) 1999 VL12
Epoch 2007 Oct. 27.0 TT = JDT 2454400.5                 MPC
M 106.54375              (2000.0)            P               Q
n   0.48985641     Peri.   40.82703     +0.05970718     +0.95790019
a   1.5937622      Node   234.47388     -0.98188584     +0.00567991
e   0.2360792      Incl.   20.18523     -0.17982005     +0.28704524
P   2.01           H   17.0           G   0.15           U   3
From 272 observations at 6 oppositions, 1993-2007, mean residual 0".53.
An explanation of the orbital elements is available.

These orbital elements are also available in forms suitable for loading into a number of popular planetarium-type software programs.


Ephemeris

The following ephemeris is at intervals of five days. A daily ephemeris covering the same time interval is also available.

Personalized ephemerides for this (and other) objects may be generated using the Minor Planet & Comet Ephemeris Service.

Date    TT    R. A. (2000) Decl.     Delta      r     Elong.  Phase     V
2008 04 14    05 02.16   +10 50.5    2.415    1.966    52.2    23.8    21.5
 
2008 11 20    13 28.62   -19 55.7    2.251    1.500    31.5    20.1    20.6
2008 11 25    13 43.77   -20 55.1    2.216    1.483    32.6    21.0    20.6
2008 11 30    13 59.28   -21 50.7    2.180    1.467    33.8    21.9    20.6
2008 12 05    14 15.16   -22 41.9    2.145    1.450    34.9    22.9    20.6
2008 12 10    14 31.43   -23 28.2    2.109    1.434    36.0    23.8    20.5
2008 12 15    14 48.08   -24 08.8    2.073    1.418    37.1    24.7    20.5
2008 12 20    15 05.11   -24 43.2    2.037    1.402    38.1    25.7    20.5
2008 12 25    15 22.51   -25 10.6    2.002    1.387    39.2    26.6    20.4
2008 12 30    15 40.25   -25 30.5    1.967    1.371    40.2    27.6    20.4
2009 01 04    15 58.29   -25 42.2    1.932    1.356    41.2    28.5    20.3
2009 01 09    16 16.61   -25 45.2    1.898    1.342    42.1    29.4    20.3
2009 01 14    16 35.16   -25 38.8    1.865    1.328    43.0    30.3    20.3
2009 01 19    16 53.88   -25 22.8    1.833    1.315    43.9    31.3    20.2
2009 01 24    17 12.74   -24 56.7    1.801    1.302    44.7    32.2    20.2
2009 01 29    17 31.65   -24 20.4    1.771    1.290    45.6    33.0    20.2
2009 02 03    17 50.55   -23 33.7    1.742    1.279    46.3    33.9    20.1
2009 02 08    18 09.40   -22 36.7    1.714    1.268    47.1    34.7    20.1
2009 02 13    18 28.13   -21 29.5    1.688    1.258    47.8    35.5    20.1
2009 02 18    18 46.70   -20 12.5    1.663    1.250    48.4    36.3    20.1
2009 02 23    19 05.07   -18 46.2    1.640    1.242    49.1    37.0    20.0
2009 02 28    19 23.19   -17 11.0    1.618    1.235    49.7    37.7    20.0
2009 03 05    19 41.03   -15 27.7    1.598    1.229    50.3    38.3    20.0
2009 03 10    19 58.58   -13 37.2    1.580    1.225    50.8    38.9    20.0
2009 03 15    20 15.84   -11 40.2    1.564    1.221    51.3    39.5    20.0
2009 03 20    20 32.78   -09 37.8    1.549    1.219    51.8    40.0    20.0
2009 03 25    20 49.43   -07 30.8    1.536    1.218    52.3    40.4    20.0
2009 03 30    21 05.77   -05 20.4    1.525    1.218    52.8    40.8    19.9
2009 04 04    21 21.81   -03 07.5    1.515    1.219    53.3    41.1    19.9
2009 04 09    21 37.58   -00 53.0    1.507    1.221    53.8    41.4    19.9
2009 04 14    21 53.10   +01 21.9    1.500    1.225    54.3    41.7    19.9
2009 04 19    22 08.38   +03 36.6    1.494    1.229    54.8    41.9    20.0
2009 04 24    22 23.43   +05 50.2    1.489    1.235    55.3    42.1    20.0
2009 04 29    22 38.27   +08 01.8    1.485    1.242    55.9    42.2    20.0
2009 05 04    22 52.91   +10 10.8    1.481    1.250    56.5    42.3    20.0
2009 05 09    23 07.38   +12 16.5    1.477    1.258    57.1    42.4    20.0
2009 05 14    23 21.69   +14 18.6    1.474    1.268    57.8    42.4    20.0
2009 05 19    23 35.84   +16 16.4    1.471    1.279    58.6    42.5    20.0

Back to Observable Critical-List Minor Planets

MPC

Valid HTML 4.01!